Regional Weather Roundup
Issued by NWS Boston, MA

Current Version | Previous Version | Text Only | Print | Product List | Glossary Off
Versions: 1 2 3 4 5 6 7 8 9 10 11 12 13 14 15 16 17 18 19 20 21 22 23 24 25 26 27
000 ASUS41 KBOX 170010 RWRBOX REGIONAL WEATHER ROUNDUP NATIONAL WEATHER SERVICE TAUNTON MA 700 PM EST TUE JAN 16 2018 NOTE: "FAIR" INDICATES FEW OR NO CLOUDS BELOW 12,000 FEET WITH NO SIGNIFICANT WEATHER AND/OR OBSTRUCTIONS TO VISIBILITY. MAZALL-170100- EASTERN MASSACHUSETTS CITY SKY/WX TMP DP RH WIND PRES REMARKS BOSTON CLOUDY 32 27 81 SE5 30.46S WCI 27 6HR MIN TEMP: 31; 6HR MAX TEMP: 33; BEVERLY CLOUDY 33 25 72 S3 30.45R LAWRENCE CLOUDY 34 23 64 CALM 30.47R BEDFORD CLOUDY 32 21 64 CALM 30.44R BLUE HILL N/A 30 24 78 S10 30.41S WCI 21 NORWOOD CLOUDY 34 26 72 CALM 30.46S MARSHFIELD N/A 32 28 86 CALM 30.48R PLYMOUTH MOCLDY 32 26 78 CALM 30.47R TAUNTON CLOUDY 32 26 78 SE3 30.47R NEW BEDFORD CLOUDY 33 29 85 S6 30.47R WCI 28 $$ MAZALL-170100- CAPE COD AND THE ISLANDS CITY SKY/WX TMP DP RH WIND PRES REMARKS FALMOUTH MOCLDY 27 25 93 S6 30.49 WCI 20 HYANNIS MOCLDY 28 24 85 S3 30.47R CHATHAM FAIR 29 25 85 CALM 30.49R PROVINCETOWN FAIR 32 26 78 S7 30.49 WCI 26 NANTUCKET CLOUDY 29 26 89 SE3 30.48S MARTHAS VNYRD CLOUDY N/A N/A N/A CALM 30.47F $$ MAZALL-170100- CENTRAL AND WESTERN MASSACHUSETTS CITY SKY/WX TMP DP RH WIND PRES REMARKS WORCESTER CLOUDY 28 21 75 CALM 30.39S 6HR MIN TEMP: 28; 6HR MAX TEMP: 29; FITCHBURG LGT SNOW 32 28 85 SE5 30.44R FOG WCI 27 ORANGE LGT SNOW 28 27 96 CALM 30.42S FOG SPRINGFIELD LGT SNOW 29 27 92 CALM 30.42R FOG WESTFIELD LGT SNOW 29 28 96 CALM 30.42F FOG NORTH ADAMS LGT SNOW 28 27 96 CALM 30.39R FOG PITTSFIELD LGT SNOW 28 24 85 VRB3 30.34S FOG $$ RIZALL-170100- RHODE ISLAND CITY SKY/WX TMP DP RH WIND PRES REMARKS PROVIDENCE CLOUDY 33 31 92 SE6 30.47R WCI 28 6HR MIN TEMP: 32; 6HR MAX TEMP: 35; NEWPORT CLOUDY 34 30 85 SE6 30.46R WCI 29 BLOCK ISLAND CLOUDY 37 30 75 SE10 30.46R WCI 30 SMITHFIELD CLOUDY N/A N/A N/A S3 30.44R WESTERLY CLOUDY 38 33 82 SE6 30.46R $$ CTZALL-170100- CONNECTICUT CITY SKY/WX TMP DP RH WIND PRES REMARKS BRADLEY INTL CLOUDY 30 26 85 N3 30.43S 6HR MIN TEMP: 29; 6HR MAX TEMP: 32; 6HR PCP: TRACE; HARTFORD CLOUDY 32 25 75 CALM 30.44S BRIDGEPORT CLOUDY 34 27 75 NE5 30.43S WCI 30 DANBURY CLOUDY 30 25 81 CALM 30.41S GROTON CLOUDY 37 30 75 SE8 30.44S WCI 31 NEW HAVEN CLOUDY 35 29 78 E3 30.43R CHESTER CLOUDY 34 30 86 CALM 30.42S MERIDEN CLOUDY 31 25 78 CALM 30.43S WILLIMANTIC CLOUDY 33 27 78 CALM 30.44R OXFORD CLOUDY 30 25 81 SE6 30.39F WCI 24 $$ MEZ002-015-021-024-NHZ003-005-008-011-012-014-VTZ005-008-170100- NORTHERN NEW ENGLAND CITY SKY/WX TMP DP RH WIND PRES REMARKS PORTLAND ME CLOUDY 26 20 77 CALM 30.46S 6HR MIN TEMP: 24; 6HR MAX TEMP: 27; BANGOR ME MOCLDY 18 12 77 CALM 30.47S CONCORD NH CLOUDY 29 22 75 SE3 30.42S MANCHESTER NH FLURRIES 30 24 78 SE5 30.42S WCI 25 NASHUA NH MIX PCPN 31 25 78 CALM 30.45R PORTSMOUTH NH CLOUDY 29 20 70 CALM 30.43F JAFFREY NH LGT SNOW 28 27 96 S3 30.38R FOG KEENE NH LGT SNOW 27 25 92 CALM 30.41S FOG BURLINGTON VT CLOUDY 26 20 77 SW3 30.39S MT. WASHINGTON SNOW 7 7 100 W40 N/A VSB 1/16WCI -19 $$ NYZ052-076-170100- EASTERN NEW YORK CITY SKY/WX TMP DP RH WIND PRES REMARKS ALBANY LGT SNOW 28 25 88 CALM 30.42R FOG 6HR MIN TEMP: 27; 6HR MAX TEMP: 30; 6HR PCP: 0.01; NEW YORK CITY CLOUDY 32 28 85 NE9 30.41S WCI 24 6HR MIN TEMP: 31; 6HR MAX TEMP: 33; $$ ANZALL-170100- MARINE OBSERVATIONS STATION/POSITION TIME TEMP WIND PRES VSBY WAVE AIR SEA DIR/SP/G HT/PER (UTC) (F) (DEG/KT/KT) (MB) (MI) (FT/S) BOSTON BUOY 2350 36 42 170/ 10/ 12 1031.3R 6/10 BUZZARDS BAY 2300 34 160/ 11/ 13 1032.1R NANTUCKET SOUND 2250 33 37 150/ 4/ 6 1032.1 1/ 5 MASS BAY-STELLWA 2304 34 40 1030.8F 7/11 ISLE OF SHOALS 2300 32 200/ 5/ 7 1031.1R S OF BLOCK IS 2343 42 N/A 4/11 $$ ......................KEY......................... SKY/WX - SKY CONDITION/PRESENT WEATHER TMP - TEMPERATURE IN FAHRENHEIT DWPT - DEWPOINT IN FAHRENHEIT RH - RELATIVE HUMIDITY IN PERCENT WIND - DIRECTION AND SPEED IN MPH PRES - MEAN SEA LEVEL PRESSURE IN INCHES OF HG WCI - WIND CHILL INDEX VSB - VISIBILITY IN MILES HX - HEAT INDEX TC - TEMPERATURE IN CELSIUS VRB - VARIABLE WIND DIRECTION N/A - NOT AVAILABLE

USA.gov is the U.S. government's official web portal to all federal, state and local government web resources and services.